Milwaukee Timmerman, WI

10:28 AM CST on December 14, 2017 (GMT -0600)
Timmerman

Weather History for KMWC - September, 2013

Change the Weather History Date:

Sunday, September 1, 2013

  Actual Average Record
Temperature  
Mean Temperature 72 °F -  
Max Temperature 84 °F 80 °F 100 °F (1953)
Min Temperature 60 °F 60 °F 42 °F (1949)
Cooling Degree Days 7    
Growing Degree Days 22 (Base 50)    
Moisture  
Dew Point 61 °F    
Average Humidity 85    
Maximum Humidity 100    
Minimum Humidity 51    
Precipitation  
Precipitation 0.00 in - - ()
Sea Level Pressure  
Sea Level Pressure 29.80 in    
Wind  
Wind Speed 3 mph (WNW)    
Max Wind Speed 18 mph    
Max Gust Speed 37 mph    
Visibility 7 miles    
Events Fog , Rain    
Averages and records for this station are not official NWS values.
T = Trace of Precipitation, MM = Missing Value Source: NWS Daily Summary

Daily Weather History Graph

Daily Weather History Graph

Search for Another Location

Airport or City:

Trip Planner

Search our weather history database for the weather conditions in past years. The results will help you decide how hot, cold, wet, or windy it might be!

Date:

Astronomy

Sep. 01, 2013 Rise Set
Actual Time 6:16 AM CDT 7:26 PM CDT
Civil Twilight 5:47 AM CDT 7:55 PM CDT
Nautical Twilight 5:12 AM CDT 8:30 PM CDT
Astronomical Twilight 4:35 AM CDT 9:07 PM CDT
Moon 2:34 AM CDT (9/1) 5:06 PM CDT (9/1)
Length of Visible Light 14h 08m
Length of Day
13h 09m
Waning Crescent, 13% of the Moon is Illuminated
Sep 1
Waning Crescent
Sep 5
New
Sep 12
First Quarter
Sep 19
Full
Sep 26
Last Quarter

Hourly Weather History & Observations

Time (CDT) Temp. Heat Index Dew Point Humidity Pressure Visibility Wind Dir Wind Speed Gust Speed Precip Events Conditions
12:15 AM 62.6 °F - 60.8 °F 94% 29.83 in 7.0 mi East 3.5 mph - N/A   Clear
12:35 AM 64.4 °F - 60.8 °F 88% 29.83 in 10.0 mi East 4.6 mph - N/A   Clear
12:55 AM 64.4 °F - 60.8 °F 88% 29.83 in 10.0 mi Calm Calm - N/A   Clear
1:15 AM 62.6 °F - 59.0 °F 88% 29.83 in 10.0 mi NW 3.5 mph - N/A   Clear
1:35 AM 60.8 °F - 59.0 °F 94% 29.83 in 10.0 mi Calm Calm - N/A   Mostly Cloudy
1:55 AM 62.6 °F - 59.0 °F 88% 29.83 in 10.0 mi Calm Calm - N/A   Overcast
2:15 AM 62.6 °F - 60.8 °F 94% 29.84 in 0.5 mi WNW 3.5 mph - N/A Fog Fog
2:35 AM 62.6 °F - 60.8 °F 94% 29.82 in 0.5 mi Calm Calm - N/A Fog Fog
2:55 AM 62.6 °F - 60.8 °F 94% 29.81 in 0.5 mi Calm Calm - N/A Fog Fog
3:15 AM 62.6 °F - 60.8 °F 94% 29.81 in 0.2 mi Calm Calm - N/A Fog Fog
3:35 AM 62.6 °F - 60.8 °F 94% 29.80 in 0.2 mi Calm Calm - N/A Fog Fog
3:55 AM 62.6 °F - 60.8 °F 94% 29.80 in 0.2 mi Calm Calm - N/A Fog Fog
4:15 AM 60.8 °F - 59.0 °F 94% 29.81 in 0.2 mi Calm Calm - N/A Fog Fog
4:35 AM 60.8 °F - 59.0 °F 94% 29.80 in 0.2 mi Calm Calm - N/A Fog Fog
4:55 AM 60.8 °F - 60.8 °F 100% 29.80 in 0.2 mi Calm Calm - N/A Fog Fog
5:15 AM 60.8 °F - 59.0 °F 94% 29.80 in 0.2 mi Calm Calm - N/A Fog Fog
5:35 AM 60.8 °F - 59.0 °F 94% 29.78 in 0.2 mi Calm Calm - N/A Fog Fog
5:55 AM 60.8 °F - 59.0 °F 94% 29.79 in 0.5 mi Calm Calm - N/A Fog Fog
6:15 AM 60.8 °F - 59.0 °F 94% 29.80 in 0.2 mi Calm Calm - N/A Fog Fog
6:35 AM 60.8 °F - 59.0 °F 94% 29.81 in 7.0 mi Calm Calm - N/A   Mostly Cloudy
6:45 AM 60.8 °F - 59.0 °F 94% 29.80 in 7.0 mi Calm Calm - N/A   Scattered Clouds
6:55 AM 60.8 °F - 59.0 °F 94% 29.78 in 10.0 mi Calm Calm - N/A   Scattered Clouds
7:45 AM 62.6 °F - 60.8 °F 94% 29.79 in 7.0 mi Calm Calm - N/A   Clear
8:45 AM 68.0 °F - 64.4 °F 88% 29.81 in 10.0 mi West 8.1 mph - N/A   Mostly Cloudy
9:45 AM 71.6 °F - 62.6 °F 73% 29.82 in 10.0 mi West 9.2 mph - N/A   Scattered Clouds
10:45 AM 73.4 °F - 64.4 °F 73% 29.80 in 10.0 mi SW 8.1 mph - N/A   Scattered Clouds
11:45 AM 78.8 °F - 62.6 °F 57% 29.77 in 10.0 mi West 8.1 mph - N/A   Scattered Clouds
2:45 PM 82.4 °F 83.4 °F 62.6 °F 51% 29.74 in 10.0 mi SW 6.9 mph - N/A   Scattered Clouds
3:45 PM 84.2 °F 85.6 °F 64.4 °F 51% 29.73 in 10.0 mi WSW 8.1 mph 16.1 mph N/A   Mostly Cloudy
4:45 PM 82.4 °F 83.9 °F 64.4 °F 54% 29.73 in 10.0 mi WSW 10.4 mph 16.1 mph N/A   Mostly Cloudy
5:45 PM 75.2 °F - 60.8 °F 61% 29.76 in 10.0 mi NNW 18.4 mph 36.8 mph N/A Rain Light Rain
6:45 PM 69.8 °F - 64.4 °F 83% 29.75 in 10.0 mi Calm Calm - N/A   Scattered Clouds
7:45 PM 68.0 °F - 64.4 °F 88% 29.77 in 10.0 mi Calm Calm - N/A   Clear
8:10 PM 68.0 °F - 64.4 °F 88% 29.78 in 10.0 mi Calm Calm - N/A   Clear
8:45 PM 68.0 °F - 64.4 °F 88% 29.79 in 10.0 mi NW 4.6 mph - N/A   Clear
9:15 PM 68.0 °F - 62.6 °F 83% 29.81 in 10.0 mi Calm Calm - N/A   Clear
9:35 PM 68.0 °F - 62.6 °F 83% 29.82 in 10.0 mi Calm Calm - N/A   Clear
9:55 PM 68.0 °F - 60.8 °F 78% 29.83 in 10.0 mi Calm Calm - N/A   Clear
10:15 PM 66.2 °F - 60.8 °F 83% 29.83 in 10.0 mi Calm Calm - N/A   Clear
10:35 PM 64.4 °F - 59.0 °F 83% 29.82 in 10.0 mi NW 5.8 mph - N/A   Clear
10:55 PM 64.4 °F - 59.0 °F 83% 29.83 in 10.0 mi NW 4.6 mph - N/A   Clear
11:15 PM 64.4 °F - 59.0 °F 83% 29.83 in 10.0 mi NW 5.8 mph - N/A   Clear
11:35 PM 64.4 °F - 57.2 °F 77% 29.83 in 10.0 mi NW 4.6 mph - N/A   Clear
11:55 PM 62.6 °F - 57.2 °F 82% 29.83 in 10.0 mi NNW 4.6 mph - N/A   Clear